AirNav   TITAN Aviation Fuels
 
 1714 users online  

73WA 7 Bays Airport
Davenport, Washington, USA

GOING TO DAVENPORT?


FAA INFORMATION EFFECTIVE 04 NOVEMBER 2021

Location

FAA Identifier: 73WA
Lat/Long: 47-51-03.5680N 118-19-48.9560W
47-51.059467N 118-19.815933W
47.8509911,-118.3302656
(estimated)
Elevation: 1580 ft. / 481.6 m (surveyed)
Variation: 20E (1985)
From city: 13 miles NW of DAVENPORT, WA
Time zone: UTC -7 (UTC -8 during Standard Time)
Zip code: 99122

Airport Operations

Airport use: Private use. Permission required prior to landing
Activation date: 08/1978
Control tower: no
ARTCC: SEATTLE CENTER
FSS: SEATTLE FLIGHT SERVICE STATION
Attendance: MON-SAT 0800-1700
Wind indicator: yes, WIND INDICATOR BOTH ENDS OF RUNWAY.
Segmented circle: no

Airport Communications

WX AWOS-2 at 2S8 (18 nm W): 124.175 (509-647-0337)

Nearby radio navigation aids

VOR radial/distance  VOR name  Freq  Var
GEGr280/33.2SPOKANE VORTAC115.5021E

 
NDB name  Hdg/Dist  Freq  Var  ID
DEER PARK243/37.036516EDPY -.. .--. -.--

Airport Services

Airframe service: MAJOR
Powerplant service: MAJOR

Runway Information

Runway 18/36

Dimensions: 2600 x 60 ft. / 792 x 18 m
Surface: turf
RUNWAY 18  RUNWAY 36
Traffic pattern: rightleft

Airport Ownership and Management from official FAA records

Ownership: Privately-owned
Owner: 7 BAYS HOMEOWNERS ASSOC
7 BAYS
DAVENPORT, WA 99122
Phone 509-725-1674
Manager: LOREN LEMEN
7 BAYS
DAVENPORT, WA 99122
Phone 509-725-1674

Airport Operational Statistics

Aircraft based on the field: 11
Single engine airplanes: 10
Ultralights: 1
  • ULTRALIGHT ACTIVITY ON AND IN VICINITY OF ARPT.
    

Additional Remarks

TURN LEFT TO NORTH & RIGHT TO SOUTH AFTER TAKEOFF
TERRAIN RISES TO NORTH.
FOR CD CTC SEATTLE ARTCC AT 253-351-3694.

Instrument Procedures

There are no published instrument procedures at 73WA.

Some nearby airports with instrument procedures:

2S8 - Wilbur Airport (18 nm W)
KSKA - Fairchild Air Force Base (31 nm SE)
KGEG - Spokane International Airport (35 nm SE)
KDEW - Deer Park Airport (37 nm E)
KSFF - Felts Field Airport (42 nm E)
 
Loc | Ops | Rwys | IFR | FBO | Links
Com | Nav | Svcs | Stats | Notes
Area around 73WA (7 Bays Airport)
 
Road maps at: MapQuest Bing Google
 
Aerial photo
WARNING: Photo may not be current or correct
Aerial photo of 73WA (7 Bays Airport)
Do you have a better or more recent aerial photo of 7 Bays Airport that you would like to share? If so, please send us your photo.

 
Sectional chart

 
Airport distance calculator
Flying to 7 Bays Airport? Find the distance to fly.

From to 73WA

Sunrise and sunset
Times for 30-Nov-2021
 Local
(UTC-8)
 Zulu
(UTC)
Morning civil twilight06:4614:46
Sunrise07:2115:21
Sunset16:0300:03
Evening civil twilight16:3800:38

Current date and time
Zulu (UTC)  30-Nov-2021 19:43:28
Local (UTC-8)  30-Nov-2021 11:43:28
 
METAR
KSKA 
31nm SE 
301858Z 17009KT 10SM FEW013 BKN060 BKN090 OVC110 08/08 A3008 RMK AO2A SLP198 T00780077 $
KGEG 
35nm SE 
301853Z 20013G21KT 10SM FEW030 SCT065 OVC090 08/06 A3009 RMK AO2 SLP195 T00830056
KDEW 
37nm E 
301853Z AUTO 14004KT 10SM BKN021 OVC095 08/04 A3011 RMK AO2 SLP203 T00830044
KSFF 
42nm E 
301853Z 22006KT 10SM BKN070 OVC095 10/05 A3010 RMK AO2 SLP195 T01000050
K63S 
45nm NE 
301915Z AUTO 10005KT 10SM BKN070 09/05 A3008 RMK A01
TAF
KSKA 
31nm SE 
301100Z 3011/0117 17010KT 9999 BKN100 QNH3007INS BECMG 3015/3016 20012G20KT 9999 BKN040 620557 QNH3007INS WND 20015G25KT AFT 3021 TEMPO 3020/3024 VCSH OVC030 BECMG 0100/0101 20012G22KT 9999 SCT010 BKN040 620805 QNH3010INS BECMG 0112/0113 21012G20KT 9999 BKN060 620904 QNH3008INS TX11/3022Z TN06/3011Z
KGEG 
35nm SE 
301738Z 3018/0118 20015G21KT P6SM SCT030 OVC080 FM010000 20012G18KT P6SM VCSH FEW020 OVC050 FM010500 20017G26KT P6SM SCT025 BKN060
NOTAMs
Click for the latest NOTAMs
NOTAMs are issued by the DoD/FAA and will open in a separate window not controlled by AirNav.

 

 
 

Would you like to see your business listed on this page?

 If your business provides an interesting product or service to pilots, flight crews, aircraft, or users of the 7 Bays Airport, you should consider listing it here.  To start the listing process, click on the button below
 
Add a business
 

Other Pages about 7 Bays Airport

Update a link
 
Copyright © AirNav, LLC. All rights reserved. Privacy Policy  Contact